Home > Time Zones > World Clock > Weather > Latvia > Riga > Past weeks

Flag for Latvia Weather past 2 weeks in Riga, Latvia

Now
52 °F

Passing clouds.


Feels Like: 51 °F
Forecast: 55 / 66 °F
Wind: 5 mph from Southwest

Location: Riga Airport

Current Time: Aug 30, 2015 at 5:44:59 AM

Latest Report: Aug 30, 2015 at 5:20 AM


Visibility: 6 mi

Pressure: 30.15 "Hg

Humidity: 100%

Dew point: 52 °F

Location of RigaLocation

Historic Weather in Riga — Graph

°F

Riga temperature yesterday

Maximum temperature yesterday: 72 °F (at 4:20 PM)
Minimum temperature yesterday: 55 °F (at 1:20 AM)
Average temperature yesterday: 62 °F

Past Weeks' High & Low Weather Summary

 TemperatureHumidityPressure
High88 °F (Aug 25, 3:50 PM)100% (Aug 15, 4:20 AM)30.45 "Hg (Aug 15, 4:20 AM)
Low43 °F (Aug 19, 5:20 AM)25% (Aug 25, 3:50 PM)29.71 "Hg (Aug 28, 9:50 AM)
Average64 °F68%30.14 "Hg
* Reported Aug 15 4:20 AM — Aug 30 4:50 AM, Riga, Weather by CustomWeather, © 2015

Note: Actual official high and low records may vary slightly from our data, if they occured in-between our weather recording intervals... More about our weather records

Advertising

Riga weather history for previous 24 hours

 ConditionsComfort  
Time TempWeatherWind HumidityBarometerVisibility
4:50 AM
Sun, Aug 30
52 °FPassing clouds.5 mph100%30.15 "HgN/A
4:20 AM52 °FPassing clouds.5 mph100%30.15 "HgN/A
3:50 AM54 °FPassing clouds.5 mph94%30.15 "HgN/A
3:20 AM54 °FPassing clouds.5 mph100%30.15 "HgN/A
2:50 AM54 °FPassing clouds.3 mph100%30.15 "HgN/A
2:20 AM54 °FPassing clouds.3 mph100%30.15 "HgN/A
1:50 AM54 °FPassing clouds.3 mph94%30.15 "HgN/A
1:20 AM55 °FPassing clouds.6 mph88%30.15 "HgN/A
12:20 AM55 °FClear.5 mph88%30.15 "Hg10 mi
11:50 PM
Sat, Aug 29
55 °FClear.5 mph88%30.15 "Hg10 mi
11:20 PM55 °FPassing clouds.3 mph82%30.15 "HgN/A
10:50 PM57 °FClear.3 mph82%30.15 "Hg10 mi
10:20 PM59 °FPassing clouds.3 mph77%30.15 "HgN/A
9:50 PM61 °FPassing clouds.3 mph72%30.15 "HgN/A
9:20 PM61 °FPassing clouds.3 mph68%30.12 "HgN/A
8:50 PM63 °FPassing clouds.3 mph64%30.12 "HgN/A
8:20 PM64 °FPassing clouds.5 mph60%30.12 "HgN/A
7:50 PM66 °FSunny.6 mph56%30.12 "Hg10 mi
7:20 PM66 °FPassing clouds.8 mph52%30.12 "HgN/A
6:50 PM68 °FPassing clouds.9 mph49%30.12 "HgN/A
6:20 PM70 °FPassing clouds.10 mph46%30.12 "HgN/A
5:50 PM70 °FPassing clouds.10 mph50%30.09 "HgN/A
5:20 PM72 °FSunny.9 mph44%30.09 "Hg10 mi
4:50 PM70 °FPassing clouds.13 mph46%30.09 "HgN/A
4:20 PM72 °FPassing clouds.12 mph44%30.07 "HgN/A
3:50 PM70 °FPassing clouds.12 mph50%30.07 "HgN/A
3:20 PM70 °FSunny.8 mph46%30.07 "Hg10 mi
2:50 PM70 °FPassing clouds.9 mph46%30.07 "HgN/A
2:20 PM66 °FPartly sunny.10 mph56%30.07 "HgN/A
1:50 PM70 °FScattered clouds.13 mph50%30.07 "HgN/A
1:20 PM68 °FScattered clouds.12 mph53%30.07 "HgN/A
12:50 PM68 °FScattered clouds.12 mph53%30.07 "HgN/A
12:20 PM68 °FScattered clouds.9 mph56%30.07 "HgN/A
11:50 AM66 °FScattered clouds.9 mph64%30.04 "HgN/A
11:20 AM66 °FScattered clouds.10 mph64%30.04 "HgN/A
10:50 AM66 °FScattered clouds.9 mph68%30.04 "HgN/A
10:20 AM64 °FScattered clouds.10 mph73%30.04 "HgN/A
9:50 AM64 °FPassing clouds.8 mph68%30.04 "HgN/A
8:50 AM61 °FSunny.6 mph83%30.01 "Hg10 mi
8:20 AM59 °FPassing clouds.3 mph88%30.01 "HgN/A
7:50 AM57 °FPassing clouds.6 mph94%29.98 "HgN/A
7:20 AM55 °FPassing clouds.7 mph100%29.98 "HgN/A
6:50 AM55 °FPassing clouds.5 mph94%29.98 "HgN/A
6:20 AM55 °FPassing clouds.6 mph94%29.98 "HgN/A
5:50 AM55 °FPassing clouds.6 mph100%29.98 "HgN/A
5:20 AM57 °FClear.7 mph94%29.95 "Hg10 mi
Weather by CustomWeather, © 2015

See weather overviewHow to use our weather pages